Home   Weather   Guildford   Past weeks

Flag for United Kingdom Past Weather in Guildford, England, United Kingdom — Yesterday and Last 2 Weeks

Now
70 °F

Scattered clouds.


Feels Like: 70 °F
Forecast: 56 / 67 °F
Wind: 13 mph from Southwest

Location: Farnborough Airport

Current Time: Aug 17, 2017 at 6:38:00 pm

Latest Report: Aug 17, 2017 at 5:50 pm


Visibility: N/A

Pressure: 29.89 "Hg

Humidity: 69%

Dew Point: 59 °F

Location of GuildfordLocation

Past Weather in Guildford — Graph

°F

Guildford Temperature Yesterday

Maximum temperature yesterday: 70 °F (at 3:20 pm)
Minimum temperature yesterday: 61 °F (at 10:20 am)
Average temperature yesterday: 66 °F

High & Low Weather Summary for the Past Weeks

 TemperatureHumidityPressure
High73 °F (Aug 17, 1:50 pm)100% (Aug 2, 5:20 pm)30.24 "Hg (Aug 2, 5:20 pm)
Low46 °F (Aug 11, 6:50 am)38% (Aug 13, 12:50 pm)29.71 "Hg (Aug 3, 7:50 am)
Average63 °F74%30.01 "Hg
* Reported Aug 2 5:20 pm — Aug 17 5:20 pm, Guildford. Weather by CustomWeather, © 2017

Note: Actual official high and low records may vary slightly from our data, if they occured in-between our weather recording intervals... More about our weather records

Advertising

Guildford Weather History for the Previous 24 Hours

Scroll right to see more
 ConditionsComfort  
Time TempWeatherWind HumidityBarometerVisibility
5:20 pm
Thu, Aug 17
70 °FScattered clouds.14 mph64%29.89 "HgN/A
4:50 pm72 °FScattered clouds.15 mph61%29.89 "HgN/A
4:20 pm70 °FScattered clouds.20 mph64%29.89 "HgN/A
3:50 pm70 °FScattered clouds.21 mph73%29.86 "HgN/A
3:20 pm72 °FScattered clouds.16 mph73%29.86 "HgN/A
2:50 pm72 °FScattered clouds.18 mph69%29.86 "HgN/A
1:50 pm73 °FScattered clouds.16 mph69%29.86 "HgN/A
1:20 pm72 °FScattered clouds.16 mph69%29.86 "HgN/A
12:50 pm72 °FScattered clouds.18 mph69%29.86 "HgN/A
12:20 pm70 °FScattered clouds.15 mph78%29.86 "HgN/A
11:50 am70 °FScattered clouds.13 mph83%29.86 "HgN/A
11:20 am70 °FScattered clouds.17 mph83%29.86 "HgN/A
10:50 am68 °FPartly sunny.14 mph88%29.86 "HgN/A
10:20 am64 °FPartly sunny.13 mph100%29.86 "HgN/A
9:50 am64 °FPartly sunny.10 mph100%29.86 "HgN/A
9:20 am64 °FScattered showers. Broken clouds.10 mph100%29.83 "HgN/A
8:50 am64 °FLight rain. Broken clouds.12 mph100%29.83 "HgN/A
8:20 am64 °FScattered showers. Partly sunny.12 mph100%29.83 "HgN/A
7:50 am63 °FScattered showers. Scattered clouds.13 mph100%29.83 "HgN/A
7:20 am63 °FScattered showers. Scattered clouds.12 mph100%29.83 "HgN/A
6:50 am63 °FLight rain. Scattered clouds.10 mph100%29.83 "HgN/A
9:20 pm
Wed, Aug 16
61 °FPassing clouds.8 mph83%30.01 "HgN/A
8:50 pm61 °FPassing clouds.8 mph77%30.04 "HgN/A
7:50 pm63 °FPassing clouds.10 mph77%30.04 "HgN/A
7:20 pm63 °FPassing clouds.9 mph77%30.04 "HgN/A
6:50 pm64 °FPassing clouds.13 mph73%30.04 "HgN/A
6:20 pm66 °FPassing clouds.15 mph64%30.04 "HgN/A
Weather by CustomWeather, © 2017

See weather overviewHow to use our weather pages